Frankfort, MI

9:22 AM EDT on September 20, 2017 (GMT -0400)
Frankfort

Weather History for KFKS - April, 2014

Change the Weather History Date:

Monday, April 14, 2014

  Actual Average (KMBL) Record (KMBL)
Temperature  
Mean Temperature 30 °F -  
Max Temperature 36 °F 55 °F 77 °F (2003)
Min Temperature 24 °F 36 °F 21 °F (1997)
Degree Days  
Heating Degree Days 35    
Moisture  
Dew Point 27 °F    
Average Humidity 87    
Maximum Humidity 97    
Minimum Humidity 75    
Precipitation  
Precipitation 0.00 in - - ()
Sea Level Pressure  
Sea Level Pressure 29.70 in    
Wind  
Wind Speed 13 mph (North)    
Max Wind Speed 21 mph    
Max Gust Speed 33 mph    
Visibility 6 miles    
Events Rain , Snow    
Averages and records for this station are not official NWS values.
T = Trace of Precipitation, MM = Missing Value Source: NWS Daily Summary

Daily Weather History Graph

Daily Weather History Graph

Search for Another Location

Airport or City:

Trip Planner

Search our weather history database for the weather conditions in past years. The results will help you decide how hot, cold, wet, or windy it might be!

Date:

Astronomy

Apr. 14, 2014 Rise Set
Actual Time 7:02 AM EDT 8:28 PM EDT
Civil Twilight 6:32 AM EDT 8:58 PM EDT
Nautical Twilight 5:55 AM EDT 9:35 PM EDT
Astronomical Twilight 5:16 AM EDT 10:15 PM EDT
Moon 8:06 PM EDT (4/14) 6:36 AM EDT (4/14)
Length of Visible Light 14h 26m
Length of Day
13h 26m
Full, 100% of the Moon is Illuminated
Apr 14
Full
Apr 15
Full
Apr 22
Last Quarter
Apr 29
New
May 6
First Quarter

Hourly Weather History & Observations

Time (EDT) Temp. Windchill Dew Point Humidity Pressure Visibility Wind Dir Wind Speed Gust Speed Precip Events Conditions
12:13 AM 36.7 °F 28.9 °F 35.2 °F 95% 29.59 in 5.0 mi NNE 11.5 mph 19.6 mph N/A   Overcast
12:34 AM 35.8 °F 26.5 °F 34.3 °F 94% 29.57 in 5.0 mi NNE 15.0 mph 24.2 mph N/A   Overcast
12:54 AM 35.6 °F 26.6 °F 34.2 °F 94% 29.55 in 4.0 mi NNE 13.8 mph 25.3 mph N/A Snow Light Snow
1:14 AM 35.6 °F 26.2 °F 34.3 °F 95% 29.55 in 2.0 mi NNE 15.0 mph 23.0 mph N/A Snow Light Snow
1:34 AM 36.0 °F 27.5 °F 34.7 °F 95% 29.52 in 2.5 mi NE 12.7 mph 21.9 mph N/A Snow Light Snow
1:54 AM 36.5 °F 29.7 °F 34.7 °F 93% 29.52 in 2.5 mi NNE 9.2 mph 20.7 mph N/A Snow Light Snow
2:14 AM 36.5 °F 28.7 °F 34.7 °F 93% 29.52 in 4.0 mi NNE 11.5 mph 19.6 mph N/A Rain Rain
2:34 AM 35.8 °F 26.5 °F 34.3 °F 94% 29.49 in 2.5 mi NNE 15.0 mph 21.9 mph N/A Snow Light Snow
2:54 AM 35.6 °F 28.0 °F 34.0 °F 94% 29.49 in 3.0 mi NNE 10.4 mph 17.3 mph N/A Snow Light Snow
3:14 AM 35.4 °F 26.8 °F 33.8 °F 94% 29.47 in 5.0 mi NNE 12.7 mph 20.7 mph N/A Rain Light Rain
3:34 AM 35.2 °F 28.1 °F 33.8 °F 94% 29.46 in 3.0 mi North 9.2 mph 21.9 mph N/A   Overcast
3:55 AM 34.9 °F 26.6 °F 33.3 °F 94% 29.45 in 4.0 mi NNE 11.5 mph 21.9 mph N/A   Overcast
4:15 AM 34.7 °F 25.5 °F 33.1 °F 94% 29.44 in 4.0 mi NNE 13.8 mph 21.9 mph N/A Rain Light Rain
4:35 AM 34.7 °F 24.7 °F 33.1 °F 94% 29.43 in 4.0 mi NNE 16.1 mph 25.3 mph N/A Snow Light Snow
4:55 AM 34.7 °F 25.5 °F 33.1 °F 94% 29.42 in 4.0 mi NNE 13.8 mph 26.5 mph N/A   Overcast
5:15 AM 34.7 °F 24.7 °F 33.1 °F 94% 29.42 in 4.0 mi NNE 16.1 mph 28.8 mph N/A Snow Light Snow
5:35 AM 34.9 °F 26.2 °F 33.1 °F 93% 29.42 in 4.0 mi NNE 12.7 mph 26.5 mph N/A Snow Light Snow
5:55 AM 34.9 °F 25.7 °F 32.9 °F 92% 29.43 in 3.0 mi NNE 13.8 mph 19.6 mph N/A Snow Light Snow
6:15 AM 34.7 °F 26.4 °F 32.9 °F 93% 29.42 in 10.0 mi North 11.5 mph 25.3 mph N/A Rain Rain
6:35 AM 34.3 °F 24.6 °F 32.9 °F 94% 29.41 in 3.0 mi North 15.0 mph 27.6 mph N/A Rain Light Rain
6:55 AM 34.0 °F 22.7 °F 32.5 °F 94% 29.42 in 2.0 mi North 19.6 mph 29.9 mph N/A Snow Light Snow
7:16 AM 33.6 °F 24.1 °F 32.2 °F 94% 29.44 in 3.0 mi North 13.8 mph 33.4 mph N/A   Overcast
7:36 AM 33.1 °F 23.0 °F 32.0 °F 96% 29.46 in 3.0 mi North 15.0 mph 25.3 mph N/A Snow Light Snow
7:56 AM 33.1 °F 22.6 °F 32.0 °F 96% 29.48 in 1.5 mi North 16.1 mph 25.3 mph N/A   Overcast
8:16 AM 32.7 °F 22.5 °F 31.8 °F 96% 29.48 in 3.0 mi North 15.0 mph 29.9 mph N/A Rain Light Rain
8:36 AM 32.4 °F 20.9 °F 31.6 °F 97% 29.50 in 1.5 mi North 18.4 mph 28.8 mph N/A Snow Light Snow
8:56 AM 32.0 °F 20.8 °F 31.1 °F 96% 29.53 in 0.8 mi NNW 17.3 mph 26.5 mph N/A Snow Light Snow
9:16 AM 32.0 °F 19.8 °F 30.7 °F 95% 29.55 in 0.5 mi North 20.7 mph 28.8 mph N/A Snow Snow
9:31 AM 31.6 °F 20.7 °F 30.2 °F 94% 29.57 in 0.5 mi NNW 16.1 mph 26.5 mph N/A Snow Snow
9:51 AM 31.1 °F 20.9 °F 29.7 °F 94% 29.59 in 0.2 mi NNW 13.8 mph 28.8 mph N/A Snow Snow
10:12 AM 31.1 °F 21.4 °F 29.3 °F 93% 29.61 in 0.8 mi NNW 12.7 mph 31.1 mph N/A Snow Light Snow
10:32 AM 31.5 °F 20.9 °F 29.3 °F 92% 29.63 in 1.2 mi NNW 15.0 mph 29.9 mph N/A Snow Light Snow
10:52 AM 31.3 °F 19.9 °F 28.9 °F 91% 29.65 in 2.5 mi NNW 17.3 mph 28.8 mph N/A Snow Light Snow
11:12 AM 31.1 °F 20.1 °F 28.4 °F 90% 29.68 in 4.0 mi NNW 16.1 mph 32.2 mph N/A   Overcast
11:32 AM 31.6 °F 20.4 °F 28.4 °F 88% 29.70 in 10.0 mi NNW 17.3 mph 26.5 mph N/A   Overcast
11:52 AM 31.6 °F 20.7 °F 28.2 °F 87% 29.71 in 10.0 mi NNW 16.1 mph 32.2 mph N/A   Overcast
12:12 PM 31.5 °F 20.5 °F 27.5 °F 85% 29.71 in 10.0 mi NNW 16.1 mph 33.4 mph N/A   Overcast
12:32 PM 31.5 °F 20.5 °F 27.5 °F 85% 29.71 in 10.0 mi North 16.1 mph 31.1 mph N/A   Overcast
12:52 PM 31.1 °F 19.7 °F 27.5 °F 87% 29.71 in 10.0 mi North 17.3 mph 24.2 mph N/A   Overcast
1:12 PM 31.8 °F 20.6 °F 27.9 °F 85% 29.72 in 10.0 mi North 17.3 mph 27.6 mph N/A   Overcast
1:33 PM 31.6 °F 20.4 °F 26.8 °F 82% 29.76 in 10.0 mi NNW 17.3 mph 21.9 mph N/A   Overcast
1:53 PM 30.9 °F 21.7 °F 25.9 °F 82% 29.78 in 10.0 mi NNW 11.5 mph 23.0 mph N/A   Overcast
2:13 PM 30.4 °F 19.1 °F 25.2 °F 81% 29.80 in 10.0 mi NNW 16.1 mph 26.5 mph N/A   Overcast
2:33 PM 30.6 °F 19.8 °F 25.3 °F 81% 29.82 in 10.0 mi NNW 15.0 mph 20.7 mph N/A   Overcast
2:53 PM 30.2 °F 21.9 °F 25.2 °F 82% 29.83 in 10.0 mi NNW 9.2 mph 21.9 mph N/A   Overcast
3:13 PM 30.2 °F 20.2 °F 24.6 °F 80% 29.83 in 10.0 mi NNW 12.7 mph 20.7 mph N/A   Overcast
3:33 PM 29.3 °F 18.2 °F 24.3 °F 81% 29.83 in 10.0 mi NNW 15.0 mph 23.0 mph N/A   Overcast
3:53 PM 28.9 °F 19.2 °F 23.9 °F 81% 29.85 in 10.0 mi NNW 11.5 mph 19.6 mph N/A   Overcast
4:13 PM 28.4 °F 17.5 °F 23.0 °F 80% 29.88 in 10.0 mi NNW 13.8 mph 23.0 mph N/A   Overcast
4:34 PM 28.0 °F 18.6 °F 22.6 °F 80% 29.88 in 10.0 mi NNW 10.4 mph 18.4 mph N/A   Overcast
4:54 PM 28.0 °F 18.6 °F 22.3 °F 79% 29.88 in 7.0 mi North 10.4 mph 18.4 mph N/A Snow Light Snow
5:14 PM 28.0 °F 17.0 °F 22.8 °F 81% 29.88 in 1.8 mi NNW 13.8 mph 27.6 mph N/A Snow Light Snow
5:34 PM 27.9 °F 16.3 °F 21.7 °F 78% 29.89 in 4.0 mi NNW 15.0 mph 26.5 mph N/A Snow Light Snow
5:54 PM 27.9 °F 16.3 °F 21.7 °F 78% 29.88 in 10.0 mi North 15.0 mph 23.0 mph N/A   Overcast
6:14 PM 27.5 °F 18.0 °F 21.2 °F 77% 29.88 in 10.0 mi North 10.4 mph 20.7 mph N/A   Overcast
6:34 PM 27.3 °F 17.7 °F 21.0 °F 77% 29.88 in 10.0 mi NNW 10.4 mph 23.0 mph N/A   Overcast
6:54 PM 27.0 °F 15.2 °F 20.3 °F 76% 29.89 in 10.0 mi North 15.0 mph 19.6 mph N/A   Overcast
7:15 PM 26.8 °F 17.7 °F 20.1 °F 76% 29.92 in 10.0 mi North 9.2 mph 20.7 mph N/A   Overcast
7:35 PM 26.4 °F 18.0 °F 20.1 °F 77% 29.93 in 10.0 mi North 8.1 mph 21.9 mph N/A   Overcast
7:55 PM 26.2 °F 16.4 °F 19.4 °F 75% 29.93 in 10.0 mi North 10.4 mph 21.9 mph N/A   Overcast
8:15 PM 26.1 °F 18.4 °F 19.0 °F 75% 29.94 in 10.0 mi North 6.9 mph 17.3 mph N/A   Overcast
8:35 PM 25.7 °F 17.1 °F 19.4 °F 77% 29.94 in 10.0 mi North 8.1 mph 20.7 mph N/A   Overcast
8:55 PM 25.7 °F 16.4 °F 19.4 °F 77% 29.94 in 10.0 mi NNW 9.2 mph 19.6 mph N/A   Overcast
9:15 PM 25.5 °F 14.9 °F 19.4 °F 78% 29.94 in 10.0 mi NNW 11.5 mph 18.4 mph N/A   Overcast
9:35 PM 25.7 °F 15.1 °F 19.2 °F 76% 29.95 in 10.0 mi North 11.5 mph 21.9 mph N/A   Overcast
9:55 PM 25.5 °F 16.2 °F 19.4 °F 78% 29.96 in 10.0 mi North 9.2 mph 17.3 mph N/A   Overcast
10:16 PM 25.5 °F 15.5 °F 19.4 °F 78% 29.97 in 7.0 mi NNW 10.4 mph 17.3 mph N/A Snow Light Snow
10:36 PM 24.8 °F 14.6 °F 20.3 °F 83% 29.97 in 2.5 mi North 10.4 mph 19.6 mph N/A Snow Light Snow
10:56 PM 24.6 °F 14.4 °F 21.2 °F 87% 29.97 in 1.5 mi North 10.4 mph 17.3 mph N/A Snow Light Snow
11:16 PM 24.6 °F 15.8 °F 20.7 °F 85% 29.96 in 3.0 mi North 8.1 mph - N/A Snow Light Snow
11:36 PM 24.6 °F 15.1 °F 21.0 °F 86% 29.95 in 2.0 mi NNW 9.2 mph 18.4 mph N/A Snow Light Snow
11:56 PM 24.6 °F 15.1 °F 20.3 °F 84% 29.95 in 3.0 mi North 9.2 mph 19.6 mph N/A Snow Light Snow